EXS78PB LTBS-EGCC

Flight info

Callsign EXS78PB
Flight time 4h 14m
Altitude 36000
Route SOTIV N136 RDS L995 CODIC UL995 KEA UL52 KUGGI ELVAS OLGAT RIVAM BUSER AGOMO VIC RESIA ELMUR RIPUS DITON HOC LUL RLP ROTSI KOTUN AMAXA VESAN RATUK SOVAT L613 SANDY UN57 WELIN T420 ELVOS
Aircraft B738/L-V/N

Departure

Time 2026-04-25 13:41
Airport Dalaman International Airport (LTBS)

Arrival

Time 2026-04-25 17:55
Airport Manchester Airport (EGCC)
Time Latitude Longitude Altitude Speed Heading
2026-04-25 13:13 36.71660 28.78835 11 ft 0 kts 284°
2026-04-25 13:32 36.71657 28.78850 11 ft 4 kts 287°
2026-04-25 13:33 36.71647 28.78881 11 ft 4 kts 297°
2026-04-25 13:33 36.71638 28.78900 13 ft 4 kts 311°
2026-04-25 13:33 36.71619 28.78917 13 ft 4 kts
2026-04-25 13:33 36.71613 28.78917 13 ft 1 kts 13°
2026-04-25 13:35 36.71627 28.78922 11 ft 5 kts 17°
2026-04-25 13:35 36.71707 28.78949 13 ft 13 kts 18°
2026-04-25 13:36 36.71774 28.78973 11 ft 16 kts 19°
2026-04-25 13:36 36.71876 28.79020 12 ft 15 kts 35°
2026-04-25 13:36 36.71886 28.79126 11 ft 13 kts 111°
2026-04-25 13:36 36.71892 28.79229 11 ft 13 kts 36°
2026-04-25 13:37 36.71989 28.79266 11 ft 16 kts 14°
2026-04-25 13:37 36.72103 28.79307 11 ft 18 kts 15°
2026-04-25 13:37 36.72223 28.79348 11 ft 17 kts 15°
2026-04-25 13:37 36.72337 28.79388 12 ft 17 kts 15°
2026-04-25 13:38 36.72448 28.79427 11 ft 16 kts 16°
2026-04-25 13:38 36.72556 28.79458 11 ft 16 kts 18°
2026-04-25 13:38 36.72646 28.79514 12 ft 11 kts 63°
2026-04-25 13:38 36.72644 28.79552 13 ft 0 kts 108°
2026-04-25 13:39 36.72641 28.79564 11 ft 5 kts 108°
2026-04-25 13:39 36.72623 28.79631 11 ft 10 kts 113°
2026-04-25 13:40 36.72569 28.79676 11 ft 10 kts 187°
2026-04-25 13:40 36.72497 28.79653 11 ft 18 kts 195°
2026-04-25 13:40 36.72119 28.79526 11 ft 94 kts 195°
2026-04-25 13:40 36.71261 28.79233 14 ft 160 kts 196°
2026-04-25 13:41 36.70059 28.78836 324 ft 192 kts 194°
2026-04-25 13:41 36.68700 28.78457 1046 ft 207 kts 181°
2026-04-25 13:41 36.67328 28.78680 2127 ft 195 kts 169°
2026-04-25 13:41 36.65913 28.78922 2532 ft 218 kts 181°
2026-04-25 13:42 36.64361 28.78429 2759 ft 241 kts 200°
2026-04-25 13:42 36.62734 28.77702 3050 ft 261 kts 201°
2026-04-25 13:42 36.61253 28.76297 3501 ft 277 kts 237°
2026-04-25 13:42 36.60692 28.74030 4269 ft 279 kts 271°
2026-04-25 13:43 36.60762 28.71620 5069 ft 280 kts 261°
2026-04-25 13:43 36.60261 28.69279 5799 ft 282 kts 250°
2026-04-25 13:43 36.59664 28.66938 6560 ft 285 kts 251°
2026-04-25 13:43 36.59073 28.64563 7305 ft 288 kts 251°
2026-04-25 13:44 36.58476 28.62164 8042 ft 291 kts 251°
2026-04-25 13:44 36.57874 28.59751 8772 ft 294 kts 251°
2026-04-25 13:44 36.57264 28.57318 9479 ft 297 kts 251°
2026-04-25 13:44 36.56647 28.54862 10239 ft 297 kts 250°
2026-04-25 13:45 36.56019 28.52375 10615 ft 314 kts 250°
2026-04-25 13:45 36.55336 28.49683 10808 ft 334 kts 250°
2026-04-25 13:45 36.54434 28.46965 11170 ft 344 kts 237°
2026-04-25 13:45 36.53150 28.44470 11834 ft 345 kts 233°
2026-04-25 13:46 36.51807 28.41991 12654 ft 343 kts 233°
2026-04-25 13:46 36.50474 28.39528 13413 ft 343 kts 233°
2026-04-25 13:46 36.49144 28.37047 13983 ft 349 kts 234°
2026-04-25 13:46 36.47796 28.34509 14567 ft 353 kts 234°
2026-04-25 13:47 36.46445 28.31944 15173 ft 356 kts 234°
2026-04-25 13:47 36.45085 28.29354 15760 ft 360 kts 234°
2026-04-25 13:47 36.43734 28.26777 16327 ft 363 kts 234°
2026-04-25 13:47 36.42348 28.24132 16863 ft 367 kts 234°
2026-04-25 13:48 36.40951 28.21466 17433 ft 370 kts 234°
2026-04-25 13:48 36.39544 28.18783 17959 ft 373 kts 235°
2026-04-25 13:48 36.38114 28.16060 18468 ft 377 kts 235°
2026-04-25 13:48 36.36674 28.13320 18990 ft 380 kts 235°
2026-04-25 13:49 36.35430 28.10423 19471 ft 387 kts 250°
2026-04-25 13:49 36.35047 28.07088 19980 ft 395 kts 269°
2026-04-25 13:49 36.35516 28.03715 20466 ft 404 kts 287°
2026-04-25 13:49 36.36617 28.00490 20940 ft 408 kts 291°
2026-04-25 13:50 36.37807 27.97275 21363 ft 412 kts 292°
2026-04-25 13:50 36.39021 27.94027 21742 ft 417 kts 292°
2026-04-25 13:50 36.40235 27.90742 22152 ft 420 kts 291°
2026-04-25 13:50 36.41441 27.87425 22595 ft 422 kts 291°
2026-04-25 13:51 36.42639 27.84093 23011 ft 424 kts 291°
2026-04-25 13:51 36.43841 27.80730 23399 ft 427 kts 291°
2026-04-25 13:51 36.45051 27.77338 23768 ft 430 kts 291°
2026-04-25 13:51 36.46264 27.73932 24126 ft 433 kts 291°
2026-04-25 13:52 36.47486 27.70498 24510 ft 436 kts 291°
2026-04-25 13:52 36.48712 27.67050 24880 ft 438 kts 291°
2026-04-25 13:52 36.49946 27.63579 25248 ft 440 kts 291°
2026-04-25 13:52 36.51188 27.60078 25590 ft 443 kts 291°
2026-04-25 13:53 36.52429 27.56577 25929 ft 445 kts 291°
2026-04-25 13:53 36.53680 27.53042 26256 ft 447 kts 291°
2026-04-25 13:53 36.54934 27.49496 26570 ft 450 kts 291°
2026-04-25 13:53 36.56192 27.45933 26906 ft 451 kts 291°
2026-04-25 13:54 36.57459 27.42341 27235 ft 453 kts 291°
2026-04-25 13:54 36.58724 27.38750 27520 ft 455 kts 291°
2026-04-25 13:54 36.60001 27.35122 27788 ft 458 kts 291°
2026-04-25 13:54 36.61279 27.31486 28070 ft 460 kts 292°
2026-04-25 13:55 36.62564 27.27826 28373 ft 461 kts 292°
2026-04-25 13:55 36.63845 27.24174 28661 ft 462 kts 292°
2026-04-25 13:55 36.65135 27.20490 28916 ft 465 kts 292°
2026-04-25 13:55 36.66431 27.16788 29157 ft 467 kts 292°
2026-04-25 13:56 36.67727 27.13078 29398 ft 469 kts 292°
2026-04-25 13:56 36.69026 27.09353 29667 ft 470 kts 292°
2026-04-25 13:56 36.70329 27.05608 29963 ft 470 kts 292°
2026-04-25 13:56 36.71607 27.01930 30298 ft 469 kts 292°
2026-04-25 13:57 36.72914 26.98164 30647 ft 467 kts 292°
2026-04-25 13:57 36.73766 26.95706 30876 ft 466 kts 292°
2026-04-25 13:57 36.75482 26.90754 31358 ft 464 kts 292°
2026-04-25 13:57 36.76758 26.87065 31648 ft 463 kts 292°
2026-04-25 13:58 36.78031 26.83379 31962 ft 462 kts 292°
2026-04-25 13:58 36.79291 26.79723 32306 ft 460 kts 291°
2026-04-25 13:58 36.80553 26.76061 32583 ft 459 kts 291°
2026-04-25 13:58 36.81815 26.72396 32836 ft 458 kts 291°
2026-04-25 13:59 36.83068 26.68749 33111 ft 457 kts 291°
2026-04-25 13:59 36.84321 26.65103 33398 ft 456 kts 291°
2026-04-25 13:59 36.85568 26.61472 33685 ft 454 kts 291°
2026-04-25 13:59 36.86812 26.57845 33957 ft 453 kts 291°
2026-04-25 14:00 36.88047 26.54242 34180 ft 452 kts 291°
2026-04-25 14:00 36.89285 26.50621 34406 ft 452 kts 291°
2026-04-25 14:00 36.90513 26.47022 34640 ft 451 kts 291°
2026-04-25 14:00 36.91742 26.43408 34853 ft 450 kts 291°
2026-04-25 14:01 36.92967 26.39804 35048 ft 450 kts 291°
2026-04-25 14:01 36.94188 26.36205 35278 ft 449 kts 291°
2026-04-25 14:01 36.95400 26.32629 35485 ft 448 kts 291°
2026-04-25 14:01 36.96614 26.29046 35688 ft 447 kts 291°
2026-04-25 14:02 36.97827 26.25461 35844 ft 447 kts 291°
2026-04-25 14:02 36.99043 26.21873 35971 ft 448 kts 291°
2026-04-25 14:02 37.00250 26.18315 35961 ft 450 kts 291°
2026-04-25 14:03 37.02705 26.11088 35967 ft 447 kts 291°
2026-04-25 14:03 37.05120 26.03957 35967 ft 443 kts 291°
2026-04-25 14:04 37.07510 25.96876 35970 ft 441 kts 291°
2026-04-25 14:04 37.09895 25.89787 35987 ft 443 kts 291°
2026-04-25 14:05 37.12283 25.82673 35988 ft 449 kts 291°
2026-04-25 14:05 37.14727 25.75380 35985 ft 453 kts 291°
2026-04-25 14:06 37.17169 25.68078 35986 ft 455 kts 291°
2026-04-25 14:06 37.19596 25.60797 35978 ft 456 kts 291°
2026-04-25 14:07 37.22033 25.53472 35982 ft 455 kts 291°
2026-04-25 14:07 37.24427 25.46150 35972 ft 452 kts 290°
2026-04-25 14:08 37.26762 25.38846 35968 ft 450 kts 291°
2026-04-25 14:08 37.28954 25.31514 35959 ft 447 kts 288°
2026-04-25 14:09 37.30897 25.24109 35967 ft 445 kts 287°
2026-04-25 14:09 37.32832 25.16748 35972 ft 444 kts 287°
2026-04-25 14:10 37.34793 25.09402 35973 ft 443 kts 288°
2026-04-25 14:10 37.36753 25.02055 35987 ft 444 kts 288°
2026-04-25 14:11 37.38716 24.94681 35999 ft 445 kts 288°
2026-04-25 14:11 37.40680 24.87277 35996 ft 447 kts 288°
2026-04-25 14:12 37.42650 24.79828 35995 ft 450 kts 288°
2026-04-25 14:12 37.44625 24.72340 35991 ft 452 kts 288°
2026-04-25 14:13 37.46605 24.64813 35991 ft 454 kts 288°
2026-04-25 14:13 37.48588 24.57246 36001 ft 455 kts 288°
2026-04-25 14:14 37.50567 24.49677 36003 ft 455 kts 288°
2026-04-25 14:14 37.52538 24.42115 36000 ft 455 kts 288°
2026-04-25 14:15 37.54509 24.34534 36000 ft 454 kts 288°
2026-04-25 14:15 37.56490 24.26979 36011 ft 454 kts 289°
2026-04-25 14:16 37.58589 24.19492 36007 ft 453 kts 290°
2026-04-25 14:16 37.60707 24.12021 36013 ft 452 kts 290°
2026-04-25 14:17 37.62801 24.04558 36013 ft 451 kts 290°
2026-04-25 14:17 37.64880 23.97088 36017 ft 451 kts 290°
2026-04-25 14:18 37.66949 23.89622 36016 ft 451 kts 290°
2026-04-25 14:18 37.69020 23.82130 36009 ft 452 kts 290°
2026-04-25 14:19 37.71070 23.74694 36010 ft 452 kts 290°
2026-04-25 14:19 37.73145 23.67146 36012 ft 452 kts 290°
2026-04-25 14:20 37.75192 23.59679 36010 ft 453 kts 290°
2026-04-25 14:20 37.77249 23.52154 36011 ft 453 kts 290°
2026-04-25 14:21 37.79316 23.44624 36000 ft 454 kts 292°
2026-04-25 14:21 37.81730 23.38686 36005 ft 452 kts 302°
2026-04-25 14:22 37.84980 23.31878 35992 ft 453 kts 302°
2026-04-25 14:22 37.88231 23.25047 35986 ft 453 kts 302°
2026-04-25 14:23 37.91449 23.18180 35998 ft 453 kts 302°
2026-04-25 14:23 37.94644 23.11305 36002 ft 453 kts 302°
2026-04-25 14:24 37.97840 23.04406 35999 ft 454 kts 302°
2026-04-25 14:24 38.01030 22.97507 35994 ft 454 kts 302°
2026-04-25 14:25 38.04222 22.90589 35995 ft 454 kts 302°
2026-04-25 14:25 38.07408 22.83672 36002 ft 454 kts 303°
2026-04-25 14:26 38.10574 22.76785 36000 ft 455 kts 303°
2026-04-25 14:26 38.13760 22.69838 36000 ft 455 kts 303°
2026-04-25 14:27 38.16945 22.62877 36000 ft 456 kts 303°
2026-04-25 14:27 38.20129 22.55903 36002 ft 456 kts 303°
2026-04-25 14:28 38.23310 22.48923 36000 ft 456 kts 303°
2026-04-25 14:28 38.26490 22.41929 36001 ft 457 kts 303°
2026-04-25 14:29 38.29665 22.34930 36003 ft 458 kts 303°
2026-04-25 14:29 38.32851 22.27890 35999 ft 458 kts 303°
2026-04-25 14:30 38.36034 22.20847 36003 ft 459 kts 303°
2026-04-25 14:30 38.40798 22.10268 36001 ft 458 kts 303°
2026-04-25 14:31 38.43963 22.03221 36006 ft 458 kts 303°
2026-04-25 14:31 38.47129 21.96153 36001 ft 458 kts 303°
2026-04-25 14:32 38.50287 21.89093 35989 ft 458 kts 303°
2026-04-25 14:32 38.53585 21.82181 35962 ft 454 kts 311°
2026-04-25 14:33 38.57539 21.75908 35979 ft 453 kts 313°
2026-04-25 14:33 38.61554 21.69710 35995 ft 453 kts 313°
2026-04-25 14:34 38.65549 21.63450 35971 ft 454 kts 313°
2026-04-25 14:34 38.69511 21.57162 35990 ft 455 kts 312°
2026-04-25 14:35 38.73471 21.50840 35985 ft 455 kts 312°
2026-04-25 14:35 38.77419 21.44524 35982 ft 454 kts 312°
2026-04-25 14:36 38.81367 21.38196 35982 ft 454 kts 312°
2026-04-25 14:36 38.85296 21.31889 35995 ft 452 kts 312°
2026-04-25 14:37 38.89219 21.25579 35988 ft 452 kts 312°
2026-04-25 14:37 38.93136 21.19267 35985 ft 451 kts 312°
2026-04-25 14:38 38.97010 21.13013 35995 ft 450 kts 312°
2026-04-25 14:38 39.00895 21.06726 35987 ft 449 kts 312°
2026-04-25 14:39 39.04775 21.00438 35990 ft 449 kts 312°
2026-04-25 14:39 39.08647 20.94150 35993 ft 449 kts 312°
2026-04-25 14:40 39.12522 20.87841 35995 ft 449 kts 312°
2026-04-25 14:40 39.16388 20.81536 35995 ft 449 kts 312°
2026-04-25 14:41 39.20259 20.75212 35992 ft 449 kts 312°
2026-04-25 14:41 39.24126 20.68883 35995 ft 450 kts 311°
2026-04-25 14:42 39.27339 20.63613 35995 ft 450 kts 311°
2026-04-25 14:42 39.31874 20.56159 36000 ft 451 kts 311°
2026-04-25 14:43 39.35745 20.49785 35987 ft 451 kts 311°
2026-04-25 14:43 39.39624 20.43384 35984 ft 452 kts 311°
2026-04-25 14:44 39.43486 20.36996 35974 ft 453 kts 311°
2026-04-25 14:44 39.47364 20.30570 35990 ft 452 kts 311°
2026-04-25 14:45 39.51243 20.24131 35974 ft 452 kts 311°
2026-04-25 14:45 39.55104 20.17707 35972 ft 452 kts 311°
2026-04-25 14:46 39.58929 20.11331 35972 ft 451 kts 311°
2026-04-25 14:46 39.62795 20.04870 35970 ft 450 kts 311°
2026-04-25 14:47 39.65990 19.99522 35972 ft 450 kts 311°
2026-04-25 14:47 39.70435 19.92068 35971 ft 449 kts 311°
2026-04-25 14:48 39.74244 19.85666 35972 ft 448 kts 311°
2026-04-25 14:48 39.78051 19.79255 35973 ft 448 kts 311°
2026-04-25 14:49 39.81852 19.72843 35971 ft 448 kts 311°
2026-04-25 14:49 39.85655 19.66412 35975 ft 448 kts 311°
2026-04-25 14:50 39.89451 19.59980 35972 ft 448 kts 311°
2026-04-25 14:50 39.93253 19.53524 35980 ft 449 kts 311°
2026-04-25 14:51 39.97047 19.47068 35983 ft 449 kts 311°
2026-04-25 14:51 40.00847 19.40588 35985 ft 450 kts 311°
2026-04-25 14:52 40.04637 19.34112 35997 ft 450 kts 311°
2026-04-25 14:52 40.07822 19.28662 35984 ft 451 kts 311°
2026-04-25 14:53 40.12232 19.21098 35996 ft 451 kts 311°
2026-04-25 14:53 40.16026 19.14573 36002 ft 450 kts 310°
2026-04-25 14:54 40.19816 19.08044 35999 ft 450 kts 310°
2026-04-25 14:54 40.23597 19.01518 36005 ft 450 kts 310°
2026-04-25 14:55 40.27676 18.95355 36014 ft 446 kts 317°
2026-04-25 14:55 40.32006 18.89584 36007 ft 445 kts 318°
2026-04-25 14:56 40.36351 18.83798 36013 ft 445 kts 317°
2026-04-25 14:56 40.40669 18.77958 36019 ft 445 kts 317°
2026-04-25 14:57 40.44942 18.72122 36019 ft 445 kts 317°
2026-04-25 14:57 40.49227 18.66246 36020 ft 445 kts 317°
2026-04-25 14:58 40.53522 18.60350 36020 ft 446 kts 317°
2026-04-25 14:58 40.57801 18.54460 36017 ft 446 kts 317°
2026-04-25 14:59 40.62091 18.48543 36019 ft 446 kts 317°
2026-04-25 14:59 40.66371 18.42629 36018 ft 446 kts 317°
2026-04-25 15:00 40.70651 18.36707 36019 ft 446 kts 317°
2026-04-25 15:00 40.74929 18.30776 36019 ft 446 kts 317°
2026-04-25 15:01 40.79175 18.24877 36019 ft 446 kts 317°
2026-04-25 15:01 40.83451 18.18924 36017 ft 446 kts 316°
2026-04-25 15:02 40.87719 18.12969 36019 ft 446 kts 316°
2026-04-25 15:02 40.91974 18.07017 36018 ft 445 kts 316°
2026-04-25 15:03 40.96221 18.01069 36026 ft 445 kts 316°
2026-04-25 15:03 41.00470 17.95108 36025 ft 445 kts 316°
2026-04-25 15:04 41.04703 17.89154 36028 ft 444 kts 316°
2026-04-25 15:04 41.08939 17.83185 36028 ft 445 kts 316°
2026-04-25 15:05 41.13164 17.77220 36028 ft 445 kts 316°
2026-04-25 15:06 41.19525 17.68213 36029 ft 445 kts 316°
2026-04-25 15:06 41.23754 17.62212 36027 ft 445 kts 316°
2026-04-25 15:07 41.27987 17.56194 36028 ft 445 kts 316°
2026-04-25 15:07 41.31489 17.51204 36028 ft 445 kts 316°
2026-04-25 15:08 41.35714 17.45173 36046 ft 445 kts 316°
2026-04-25 15:08 41.39934 17.39137 36032 ft 445 kts 316°
2026-04-25 15:09 41.44148 17.33097 36056 ft 445 kts 315°
2026-04-25 15:09 41.50460 17.24028 36034 ft 443 kts 315°
2026-04-25 15:10 41.54642 17.18001 36045 ft 442 kts 314°
2026-04-25 15:11 41.60888 17.08979 36035 ft 440 kts 315°
2026-04-25 15:11 41.65035 17.02977 36035 ft 439 kts 314°
2026-04-25 15:12 41.71245 16.93961 36037 ft 438 kts 314°
2026-04-25 15:12 41.74676 16.88966 36053 ft 438 kts 314°
2026-04-25 15:13 41.81555 16.78933 36054 ft 439 kts 314°
2026-04-25 15:14 41.85671 16.72911 36046 ft 440 kts 314°
2026-04-25 15:14 41.89821 16.66827 36042 ft 441 kts 314°
2026-04-25 15:15 41.93957 16.60751 36045 ft 442 kts 314°
2026-04-25 15:15 41.98094 16.54663 36049 ft 443 kts 314°
2026-04-25 15:16 42.02278 16.48490 36042 ft 444 kts 313°
2026-04-25 15:16 42.08522 16.39256 36036 ft 444 kts 313°
2026-04-25 15:17 42.14711 16.30072 36042 ft 444 kts 313°
2026-04-25 15:18 42.18851 16.23913 36051 ft 443 kts 313°
2026-04-25 15:18 42.25053 16.14663 36042 ft 442 kts 313°
2026-04-25 15:19 42.28476 16.09546 36037 ft 442 kts 313°
2026-04-25 15:19 42.33291 16.02331 36046 ft 441 kts 313°
2026-04-25 15:20 42.37397 15.96165 36036 ft 441 kts 313°
2026-04-25 15:20 42.41499 15.89992 36037 ft 441 kts 313°
2026-04-25 15:21 42.45593 15.83816 36027 ft 441 kts 312°
2026-04-25 15:21 42.49687 15.77633 36030 ft 440 kts 313°
2026-04-25 15:22 42.54022 15.71789 36031 ft 440 kts 317°
2026-04-25 15:22 42.58522 15.66173 36024 ft 440 kts 317°
2026-04-25 15:23 42.63017 15.60539 36020 ft 439 kts 317°
2026-04-25 15:23 42.67475 15.54870 36019 ft 439 kts 317°
2026-04-25 15:24 42.71921 15.49170 36019 ft 439 kts 316°
2026-04-25 15:24 42.75607 15.44426 36018 ft 439 kts 316°
2026-04-25 15:25 42.80784 15.37756 36020 ft 438 kts 316°
2026-04-25 15:25 42.85203 15.32051 36020 ft 438 kts 316°
2026-04-25 15:26 42.89621 15.26332 36027 ft 437 kts 316°
2026-04-25 15:26 42.93995 15.20662 36029 ft 437 kts 316°
2026-04-25 15:27 42.98397 15.14943 36026 ft 436 kts 316°
2026-04-25 15:28 43.04972 15.06376 36026 ft 435 kts 316°
2026-04-25 15:28 43.09351 15.00659 36032 ft 435 kts 315°
2026-04-25 15:29 43.13730 14.94928 36025 ft 435 kts 315°
2026-04-25 15:29 43.18095 14.89204 36030 ft 435 kts 315°
2026-04-25 15:30 43.22464 14.83463 36027 ft 435 kts 315°
2026-04-25 15:30 43.26820 14.77724 36030 ft 434 kts 315°
2026-04-25 15:31 43.31175 14.71978 36027 ft 434 kts 315°
2026-04-25 15:31 43.35528 14.66221 36030 ft 434 kts 315°
2026-04-25 15:32 43.39881 14.60452 36027 ft 435 kts 315°
2026-04-25 15:32 43.44233 14.54673 36026 ft 435 kts 315°
2026-04-25 15:33 43.50724 14.46031 36031 ft 435 kts 314°
2026-04-25 15:33 43.55069 14.40228 36028 ft 435 kts 314°
2026-04-25 15:34 43.59406 14.34425 36026 ft 435 kts 314°
2026-04-25 15:34 43.62306 14.30538 36029 ft 434 kts 314°
2026-04-25 15:35 43.70228 14.19892 36029 ft 433 kts 314°
2026-04-25 15:36 43.76694 14.11171 36028 ft 432 kts 314°
2026-04-25 15:36 43.80997 14.05354 36031 ft 432 kts 314°
2026-04-25 15:37 43.85296 13.99527 36026 ft 432 kts 314°
2026-04-25 15:37 43.89583 13.93707 36027 ft 431 kts 314°
2026-04-25 15:38 43.93863 13.87880 36028 ft 431 kts 314°
2026-04-25 15:38 43.98136 13.82054 36027 ft 431 kts 314°
2026-04-25 15:39 44.02405 13.76219 36029 ft 430 kts 313°
2026-04-25 15:39 44.06642 13.70417 36029 ft 431 kts 313°
2026-04-25 15:40 44.09490 13.66511 36025 ft 431 kts 314°
2026-04-25 15:40 44.15931 13.59912 36018 ft 434 kts 325°
2026-04-25 15:41 44.21001 13.55371 36023 ft 433 kts 325°
2026-04-25 15:41 44.26060 13.50785 36019 ft 434 kts 324°
2026-04-25 15:42 44.31099 13.46166 36019 ft 433 kts 324°
2026-04-25 15:42 44.36134 13.41526 36017 ft 433 kts 324°
2026-04-25 15:43 44.41160 13.36882 36018 ft 433 kts 324°
2026-04-25 15:43 44.46184 13.32230 36018 ft 433 kts 324°
2026-04-25 15:44 44.51201 13.27578 36018 ft 432 kts 324°
2026-04-25 15:44 44.56203 13.22930 36019 ft 432 kts 323°
2026-04-25 15:45 44.61205 13.18272 36016 ft 431 kts 323°
2026-04-25 15:45 44.64548 13.15151 36019 ft 431 kts 323°
2026-04-25 15:46 44.71181 13.08951 36018 ft 430 kts 323°
2026-04-25 15:46 44.76153 13.04293 36008 ft 429 kts 323°
2026-04-25 15:47 44.81118 12.99629 36009 ft 429 kts 323°
2026-04-25 15:47 44.86077 12.94962 36010 ft 428 kts 323°
2026-04-25 15:48 44.91025 12.90294 36008 ft 428 kts 323°
2026-04-25 15:48 44.95975 12.85616 36012 ft 428 kts 323°
2026-04-25 15:49 45.00880 12.80852 36010 ft 426 kts 317°
2026-04-25 15:49 45.04837 12.74830 36028 ft 420 kts 305°
2026-04-25 15:50 45.08431 12.68300 36012 ft 421 kts 305°
2026-04-25 15:50 45.12036 12.61772 36007 ft 421 kts 305°
2026-04-25 15:51 45.14452 12.57419 36011 ft 421 kts 305°
2026-04-25 15:51 45.19274 12.48751 36009 ft 421 kts 305°
2026-04-25 15:52 45.22899 12.42224 36020 ft 421 kts 305°
2026-04-25 15:52 45.26521 12.35688 36019 ft 421 kts 305°
2026-04-25 15:53 45.30135 12.29152 36017 ft 421 kts 305°
2026-04-25 15:53 45.33741 12.22613 36013 ft 420 kts 305°
2026-04-25 15:54 45.37341 12.16070 36009 ft 420 kts 305°
2026-04-25 15:54 45.40928 12.09535 36013 ft 419 kts 305°
2026-04-25 15:55 45.44505 12.03004 36005 ft 418 kts 304°
2026-04-25 15:55 45.47478 11.97566 36004 ft 418 kts 304°
2026-04-25 15:56 45.51036 11.91042 36009 ft 416 kts 304°
2026-04-25 15:56 45.54579 11.84529 36007 ft 415 kts 304°
2026-04-25 15:57 45.58115 11.78016 36010 ft 415 kts 304°
2026-04-25 15:57 45.61645 11.71497 36009 ft 415 kts 304°
2026-04-25 15:58 45.65161 11.64971 36018 ft 414 kts 304°
2026-04-25 15:58 45.68636 11.58404 36019 ft 414 kts 303°
2026-04-25 15:59 45.72097 11.51828 36043 ft 414 kts 303°
2026-04-25 15:59 45.75554 11.45251 36053 ft 414 kts 303°
2026-04-25 16:00 45.78435 11.39765 36063 ft 414 kts 303°
2026-04-25 16:00 45.82486 11.32037 36080 ft 415 kts 304°
2026-04-25 16:01 45.85953 11.25408 36063 ft 417 kts 303°
2026-04-25 16:01 45.89436 11.18730 36072 ft 418 kts 303°
2026-04-25 16:02 45.92917 11.12038 36089 ft 418 kts 303°
2026-04-25 16:02 45.96395 11.05339 36094 ft 418 kts 303°
2026-04-25 16:03 45.99862 10.98647 36128 ft 418 kts 303°
2026-04-25 16:03 46.03333 10.91929 36157 ft 418 kts 303°
2026-04-25 16:04 46.06806 10.85190 36152 ft 418 kts 303°
2026-04-25 16:04 46.10265 10.78464 36147 ft 418 kts 303°
2026-04-25 16:05 46.13721 10.71727 36115 ft 417 kts 303°
2026-04-25 16:06 46.18863 10.61673 36103 ft 415 kts 303°
2026-04-25 16:06 46.22272 10.54987 36093 ft 413 kts 303°
2026-04-25 16:07 46.25674 10.48297 36087 ft 413 kts 303°
2026-04-25 16:07 46.29066 10.41613 36100 ft 412 kts 303°
2026-04-25 16:08 46.32452 10.34924 36100 ft 413 kts 303°
2026-04-25 16:08 46.35844 10.28208 36094 ft 413 kts 303°
2026-04-25 16:09 46.39233 10.21481 36090 ft 414 kts 303°
2026-04-25 16:09 46.42598 10.14785 36096 ft 414 kts 303°
2026-04-25 16:10 46.46002 10.07995 36092 ft 414 kts 303°
2026-04-25 16:10 46.49496 10.01426 36108 ft 415 kts 307°
2026-04-25 16:11 46.53323 9.95161 36103 ft 415 kts 309°
2026-04-25 16:11 46.57181 9.88915 36103 ft 416 kts 309°
2026-04-25 16:12 46.61021 9.82623 36099 ft 416 kts 309°
2026-04-25 16:12 46.64851 9.76299 36105 ft 417 kts 309°
2026-04-25 16:13 46.68677 9.69951 36104 ft 418 kts 309°
2026-04-25 16:13 46.72519 9.63563 36096 ft 419 kts 309°
2026-04-25 16:14 46.76356 9.57170 36093 ft 419 kts 309°
2026-04-25 16:14 46.80198 9.50753 36077 ft 420 kts 309°
2026-04-25 16:15 46.84030 9.44337 36075 ft 420 kts 309°
2026-04-25 16:15 46.87869 9.37898 36072 ft 419 kts 309°
2026-04-25 16:16 46.91683 9.31481 36077 ft 418 kts 309°
2026-04-25 16:16 46.95490 9.25062 36069 ft 417 kts 309°
2026-04-25 16:17 46.99290 9.18639 36071 ft 417 kts 309°
2026-04-25 16:17 47.03069 9.12236 36076 ft 417 kts 309°
2026-04-25 16:18 47.06869 9.05781 36084 ft 417 kts 309°
2026-04-25 16:18 47.10658 8.99333 36077 ft 418 kts 309°
2026-04-25 16:19 47.14418 8.92839 36073 ft 417 kts 305°
2026-04-25 16:19 47.17147 8.85395 36073 ft 415 kts 290°
2026-04-25 16:20 47.20096 8.73519 36078 ft 414 kts 290°
2026-04-25 16:21 47.23106 8.61575 36078 ft 414 kts 291°
2026-04-25 16:21 47.25113 8.53636 36070 ft 414 kts 290°
2026-04-25 16:22 47.27116 8.45685 36077 ft 415 kts 291°
2026-04-25 16:22 47.29123 8.37720 36075 ft 415 kts 291°
2026-04-25 16:23 47.31120 8.29751 36076 ft 415 kts 290°
2026-04-25 16:23 47.33111 8.21749 36073 ft 416 kts 290°
2026-04-25 16:24 47.35096 8.13736 36073 ft 416 kts 290°
2026-04-25 16:24 47.37083 8.05694 36076 ft 417 kts 290°
2026-04-25 16:25 47.39063 7.97656 36076 ft 417 kts 290°
2026-04-25 16:25 47.41041 7.89591 36072 ft 418 kts 290°
2026-04-25 16:26 47.43011 7.81532 36071 ft 418 kts 290°
2026-04-25 16:26 47.44984 7.73438 36076 ft 418 kts 290°
2026-04-25 16:27 47.46901 7.65338 36069 ft 418 kts 287°
2026-04-25 16:27 47.48343 7.57006 36068 ft 419 kts 284°
2026-04-25 16:28 47.49695 7.48620 36074 ft 418 kts 284°
2026-04-25 16:28 47.51058 7.40260 36072 ft 418 kts 285°
2026-04-25 16:29 47.52432 7.31913 36075 ft 417 kts 285°
2026-04-25 16:29 47.53804 7.23583 36084 ft 417 kts 285°
2026-04-25 16:30 47.55172 7.15243 36080 ft 416 kts 284°
2026-04-25 16:30 47.56531 7.06913 36091 ft 416 kts 284°
2026-04-25 16:31 47.57879 6.98593 36093 ft 415 kts 284°
2026-04-25 16:31 47.59224 6.90278 36100 ft 415 kts 284°
2026-04-25 16:32 47.60563 6.81948 36105 ft 415 kts 284°
2026-04-25 16:32 47.61890 6.73650 36101 ft 415 kts 284°
2026-04-25 16:33 47.63214 6.65326 36107 ft 414 kts 284°
2026-04-25 16:33 47.64531 6.57003 36100 ft 414 kts 284°
2026-04-25 16:34 47.65840 6.48690 36101 ft 414 kts 284°
2026-04-25 16:34 47.67142 6.40387 36103 ft 413 kts 284°
2026-04-25 16:35 47.68431 6.32116 36103 ft 413 kts 284°
2026-04-25 16:35 47.69934 6.23890 36102 ft 413 kts 288°
2026-04-25 16:36 47.71699 6.15783 36102 ft 412 kts 289°
2026-04-25 16:36 47.73475 6.07628 36105 ft 412 kts 289°
2026-04-25 16:37 47.75192 5.99568 36100 ft 412 kts 289°
2026-04-25 16:37 47.76903 5.91441 36102 ft 412 kts 288°
2026-04-25 16:38 47.78606 5.83304 36107 ft 412 kts 288°
2026-04-25 16:38 47.80304 5.75160 36112 ft 412 kts 288°
2026-04-25 16:39 47.81995 5.67018 36116 ft 412 kts 288°
2026-04-25 16:39 47.83680 5.58873 36109 ft 412 kts 288°
2026-04-25 16:40 47.85361 5.50710 36113 ft 412 kts 288°
2026-04-25 16:40 47.87039 5.42534 36112 ft 413 kts 288°
2026-04-25 16:41 47.88710 5.34364 36115 ft 413 kts 288°
2026-04-25 16:41 47.91559 5.23873 36118 ft 412 kts 302°
2026-04-25 16:42 47.95178 5.17248 36121 ft 413 kts 311°
2026-04-25 16:42 47.99076 5.10935 36121 ft 413 kts 311°
2026-04-25 16:43 48.02959 5.04591 36126 ft 414 kts 311°
2026-04-25 16:43 48.06826 4.98204 36119 ft 414 kts 311°
2026-04-25 16:44 48.10685 4.91801 36116 ft 414 kts 311°
2026-04-25 16:44 48.14542 4.85384 36121 ft 414 kts 310°
2026-04-25 16:45 48.18390 4.78964 36128 ft 414 kts 310°
2026-04-25 16:45 48.22238 4.72531 36129 ft 414 kts 310°
2026-04-25 16:46 48.26063 4.66124 36125 ft 414 kts 310°
2026-04-25 16:46 48.29296 4.60692 36131 ft 421 kts 310°
2026-04-25 16:47 48.33913 4.52916 36134 ft 431 kts 310°
2026-04-25 16:47 48.37924 4.46144 36123 ft 436 kts 310°
2026-04-25 16:48 48.41963 4.39304 36127 ft 438 kts 310°
2026-04-25 16:48 48.46011 4.32434 36127 ft 438 kts 310°
2026-04-25 16:49 48.50048 4.25564 36130 ft 438 kts 310°
2026-04-25 16:49 48.54082 4.18681 36125 ft 437 kts 310°
2026-04-25 16:50 48.58073 4.11853 36128 ft 436 kts 310°
2026-04-25 16:50 48.62102 4.04939 36131 ft 435 kts 310°
2026-04-25 16:51 48.66094 3.98074 36133 ft 434 kts 310°
2026-04-25 16:51 48.69403 3.92372 36129 ft 434 kts 309°
2026-04-25 16:52 48.74349 3.84850 36120 ft 436 kts 322°
2026-04-25 16:52 48.79329 3.79480 36128 ft 436 kts 322°
2026-04-25 16:53 48.86715 3.71520 36132 ft 436 kts 322°
2026-04-25 16:54 48.91641 3.66133 36126 ft 436 kts 322°
2026-04-25 16:54 48.96559 3.60722 36128 ft 436 kts 322°
2026-04-25 16:55 49.01489 3.55284 36134 ft 437 kts 322°
2026-04-25 16:55 49.06407 3.49846 36131 ft 437 kts 322°
2026-04-25 16:56 49.11332 3.44387 36150 ft 438 kts 321°
2026-04-25 16:56 49.16256 3.38914 36148 ft 438 kts 321°
2026-04-25 16:57 49.21181 3.33430 36146 ft 438 kts 321°
2026-04-25 16:57 49.26110 3.27926 36154 ft 438 kts 321°
2026-04-25 16:58 49.31030 3.22417 36155 ft 438 kts 321°
2026-04-25 16:58 49.35944 3.16901 36159 ft 439 kts 321°
2026-04-25 16:59 49.40872 3.11356 36157 ft 439 kts 321°
2026-04-25 16:59 49.45779 3.05820 36168 ft 439 kts 321°
2026-04-25 17:00 49.50704 3.00250 36167 ft 439 kts 321°
2026-04-25 17:00 49.55626 2.94668 36167 ft 439 kts 321°
2026-04-25 17:01 49.60543 2.89078 36173 ft 439 kts 321°
2026-04-25 17:01 49.65457 2.83476 36177 ft 440 kts 321°
2026-04-25 17:02 49.70383 2.77847 36178 ft 440 kts 321°
2026-04-25 17:02 49.75304 2.72211 36177 ft 441 kts 321°
2026-04-25 17:03 49.80262 2.66575 36178 ft 442 kts 322°
2026-04-25 17:03 49.85266 2.61046 36187 ft 443 kts 322°
2026-04-25 17:04 49.90296 2.55485 36184 ft 444 kts 322°
2026-04-25 17:04 49.95307 2.49911 36188 ft 444 kts 321°
2026-04-25 17:05 50.00331 2.44296 36186 ft 445 kts 321°
2026-04-25 17:05 50.07869 2.35844 36185 ft 445 kts 321°
2026-04-25 17:06 50.12886 2.30201 36183 ft 445 kts 321°
2026-04-25 17:06 50.17902 2.24542 36185 ft 445 kts 321°
2026-04-25 17:07 50.22911 2.18875 36184 ft 445 kts 321°
2026-04-25 17:07 50.27921 2.13195 36186 ft 445 kts 321°
2026-04-25 17:08 50.32939 2.07490 36182 ft 445 kts 321°
2026-04-25 17:08 50.37916 2.01744 36179 ft 444 kts 319°
2026-04-25 17:09 50.42611 1.95460 36186 ft 443 kts 316°
2026-04-25 17:09 50.47222 1.89044 36187 ft 443 kts 316°
2026-04-25 17:10 50.51857 1.82654 36182 ft 444 kts 316°
2026-04-25 17:10 50.56510 1.76274 36182 ft 444 kts 316°
2026-04-25 17:11 50.61173 1.69869 36183 ft 444 kts 316°
2026-04-25 17:11 50.65823 1.63463 36189 ft 444 kts 316°
2026-04-25 17:12 50.70469 1.57038 36195 ft 444 kts 316°
2026-04-25 17:12 50.75107 1.50602 36187 ft 444 kts 316°
2026-04-25 17:13 50.78181 1.46328 36198 ft 444 kts 316°
2026-04-25 17:13 50.84386 1.37689 36205 ft 445 kts 316°
2026-04-25 17:14 50.89028 1.31205 36202 ft 445 kts 316°
2026-04-25 17:14 50.93661 1.24714 36204 ft 445 kts 316°
2026-04-25 17:15 50.98291 1.18208 36212 ft 445 kts 316°
2026-04-25 17:15 51.02913 1.11698 36212 ft 445 kts 316°
2026-04-25 17:16 51.07527 1.05153 36213 ft 445 kts 315°
2026-04-25 17:16 51.11985 0.98312 36213 ft 444 kts 313°
2026-04-25 17:17 51.16367 0.91400 36212 ft 445 kts 313°
2026-04-25 17:17 51.20782 0.84468 36213 ft 445 kts 313°
2026-04-25 17:18 51.25200 0.77559 36212 ft 445 kts 313°
2026-04-25 17:18 51.29623 0.70637 36210 ft 445 kts 313°
2026-04-25 17:19 51.34053 0.63686 36205 ft 446 kts 313°
2026-04-25 17:19 51.38444 0.56772 36207 ft 446 kts 313°
2026-04-25 17:20 51.42861 0.49798 36204 ft 446 kts 313°
2026-04-25 17:20 51.47274 0.42811 36202 ft 446 kts 313°
2026-04-25 17:21 51.51667 0.35834 36203 ft 446 kts 313°
2026-04-25 17:21 51.56095 0.28781 36199 ft 446 kts 313°
2026-04-25 17:22 51.59042 0.24074 36194 ft 447 kts 313°
2026-04-25 17:22 51.64916 0.14671 36205 ft 450 kts 313°
2026-04-25 17:23 51.69336 0.07460 36202 ft 454 kts 313°
2026-04-25 17:23 51.73756 0.00175 36181 ft 449 kts 312°
2026-04-25 17:24 51.75909 -0.03378 36175 ft 435 kts 313°
2026-04-25 17:24 51.77995 -0.06819 36172 ft 425 kts 313°
2026-04-25 17:24 51.82079 -0.13574 36004 ft 417 kts 312°
2026-04-25 17:25 51.84090 -0.16907 35737 ft 410 kts 312°
2026-04-25 17:25 51.86071 -0.20194 35330 ft 407 kts 312°
2026-04-25 17:25 51.88037 -0.23461 34974 ft 403 kts 312°
2026-04-25 17:25 51.89982 -0.26697 34601 ft 400 kts 312°
2026-04-25 17:26 51.91911 -0.29911 34228 ft 397 kts 312°
2026-04-25 17:26 51.93187 -0.32039 33980 ft 395 kts 312°
2026-04-25 17:26 51.95121 -0.35268 33603 ft 393 kts 312°
2026-04-25 17:26 51.96991 -0.38393 33236 ft 390 kts 312°
2026-04-25 17:27 51.98895 -0.41580 32870 ft 387 kts 312°
2026-04-25 17:27 52.00742 -0.44673 32510 ft 385 kts 312°
2026-04-25 17:27 52.02591 -0.47776 32151 ft 383 kts 313°
2026-04-25 17:27 52.03845 -0.49882 31898 ft 381 kts 313°
2026-04-25 17:28 52.06277 -0.53973 31435 ft 378 kts 313°
2026-04-25 17:28 52.08098 -0.57039 31085 ft 376 kts 313°
2026-04-25 17:28 52.09909 -0.60093 30731 ft 373 kts 313°
2026-04-25 17:28 52.11700 -0.63119 30390 ft 371 kts 313°
2026-04-25 17:29 52.13487 -0.66140 30036 ft 369 kts 313°
2026-04-25 17:29 52.15259 -0.69138 29690 ft 366 kts 313°
2026-04-25 17:29 52.17022 -0.72126 29325 ft 364 kts 313°
2026-04-25 17:29 52.18765 -0.75084 28984 ft 361 kts 313°
2026-04-25 17:30 52.20501 -0.78032 28613 ft 359 kts 313°
2026-04-25 17:30 52.22224 -0.80962 28260 ft 357 kts 313°
2026-04-25 17:30 52.23938 -0.83862 27913 ft 355 kts 314°
2026-04-25 17:30 52.25832 -0.86428 27572 ft 353 kts 325°
2026-04-25 17:31 52.27909 -0.88522 27268 ft 350 kts 327°
2026-04-25 17:31 52.30001 -0.90561 26913 ft 348 kts 327°
2026-04-25 17:31 52.32077 -0.92585 26572 ft 346 kts 327°
2026-04-25 17:31 52.34131 -0.94603 26229 ft 344 kts 327°
2026-04-25 17:32 52.36169 -0.96619 25890 ft 341 kts 327°
2026-04-25 17:32 52.38194 -0.98634 25557 ft 339 kts 327°
2026-04-25 17:32 52.40200 -1.00637 25227 ft 338 kts 327°
2026-04-25 17:32 52.42203 -1.02640 24890 ft 336 kts 327°
2026-04-25 17:33 52.44191 -1.04631 24555 ft 334 kts 327°
2026-04-25 17:33 52.46166 -1.06610 24224 ft 332 kts 327°
2026-04-25 17:33 52.48128 -1.08578 23896 ft 330 kts 327°
2026-04-25 17:33 52.50084 -1.10544 23567 ft 328 kts 327°
2026-04-25 17:34 52.52028 -1.12498 23240 ft 326 kts 327°
2026-04-25 17:34 52.53928 -1.14412 22920 ft 324 kts 327°
2026-04-25 17:34 52.55845 -1.16345 22601 ft 322 kts 327°
2026-04-25 17:34 52.57751 -1.18267 22276 ft 321 kts 327°
2026-04-25 17:35 52.59649 -1.20182 21952 ft 320 kts 327°
2026-04-25 17:35 52.61542 -1.22094 21642 ft 317 kts 326°
2026-04-25 17:35 52.63412 -1.23984 21311 ft 315 kts 327°
2026-04-25 17:35 52.65292 -1.25823 21005 ft 313 kts 326°
2026-04-25 17:36 52.67132 -1.27719 20679 ft 312 kts 326°
2026-04-25 17:36 52.68964 -1.29618 20366 ft 311 kts 326°
2026-04-25 17:36 52.70813 -1.31501 20042 ft 313 kts 326°
2026-04-25 17:36 52.72667 -1.33419 19652 ft 316 kts 327°
2026-04-25 17:37 52.74533 -1.35346 19291 ft 318 kts 326°
2026-04-25 17:37 52.76413 -1.37271 18903 ft 318 kts 327°
2026-04-25 17:37 52.78307 -1.39179 18518 ft 319 kts 327°
2026-04-25 17:37 52.80200 -1.41092 18143 ft 319 kts 327°
2026-04-25 17:38 52.82092 -1.43016 17756 ft 319 kts 327°
2026-04-25 17:38 52.83341 -1.44289 17498 ft 319 kts 327°
2026-04-25 17:38 52.85865 -1.46869 16994 ft 318 kts 327°
2026-04-25 17:38 52.87741 -1.48792 16602 ft 318 kts 327°
2026-04-25 17:39 52.89624 -1.50722 16228 ft 318 kts 327°
2026-04-25 17:39 52.91500 -1.52648 15855 ft 317 kts 327°
2026-04-25 17:39 52.93377 -1.54578 15477 ft 317 kts 327°
2026-04-25 17:39 52.95248 -1.56504 15091 ft 317 kts 327°
2026-04-25 17:40 52.97117 -1.58434 14710 ft 316 kts 327°
2026-04-25 17:40 52.98975 -1.60350 14329 ft 314 kts 327°
2026-04-25 17:40 53.00823 -1.62259 13958 ft 313 kts 327°
2026-04-25 17:40 53.02673 -1.64172 13588 ft 313 kts 327°
2026-04-25 17:41 53.04521 -1.66087 13224 ft 312 kts 327°
2026-04-25 17:41 53.06203 -1.68312 12822 ft 310 kts 311°
2026-04-25 17:41 53.07578 -1.71066 12480 ft 308 kts 309°
2026-04-25 17:41 53.08944 -1.73802 12102 ft 307 kts 310°
2026-04-25 17:42 53.10322 -1.76509 11721 ft 306 kts 310°
2026-04-25 17:42 53.11691 -1.79180 11334 ft 301 kts 310°
2026-04-25 17:42 53.13035 -1.81791 10946 ft 295 kts 310°
2026-04-25 17:42 53.14363 -1.84373 10540 ft 291 kts 310°
2026-04-25 17:43 53.15675 -1.86927 10140 ft 287 kts 310°
2026-04-25 17:43 53.16964 -1.89439 9730 ft 284 kts 310°
2026-04-25 17:43 53.18241 -1.91927 9320 ft 281 kts 310°
2026-04-25 17:43 53.19507 -1.94395 8903 ft 279 kts 310°
2026-04-25 17:44 53.20762 -1.96847 8489 ft 277 kts 310°
2026-04-25 17:44 53.22009 -1.99287 8081 ft 275 kts 310°
2026-04-25 17:44 53.23319 -2.01520 7665 ft 274 kts 325°
2026-04-25 17:44 53.25073 -2.02678 7237 ft 274 kts 353°
2026-04-25 17:45 53.26951 -2.02343 6807 ft 274 kts 20°
2026-04-25 17:45 53.28079 -2.01310 6526 ft 274 kts 35°
2026-04-25 17:45 53.30028 -1.98663 6004 ft 272 kts 39°
2026-04-25 17:45 53.31468 -1.96608 5613 ft 270 kts 40°
2026-04-25 17:46 53.32894 -1.94574 5218 ft 268 kts 40°
2026-04-25 17:46 53.34302 -1.92563 4829 ft 265 kts 40°
2026-04-25 17:46 53.35694 -1.90576 4417 ft 262 kts 40°
2026-04-25 17:46 53.37075 -1.88606 4005 ft 259 kts 40°
2026-04-25 17:47 53.38435 -1.86663 3609 ft 256 kts 40°
2026-04-25 17:47 53.39757 -1.84774 3505 ft 242 kts 40°
2026-04-25 17:47 53.41124 -1.83407 3481 ft 220 kts 13°
2026-04-25 17:47 53.42559 -1.83497 3475 ft 201 kts 337°
2026-04-25 17:48 53.44652 -1.86206 3508 ft 188 kts 320°
2026-04-25 17:48 53.45644 -1.87618 3487 ft 187 kts 320°
2026-04-25 17:48 53.46637 -1.89034 3487 ft 187 kts 320°
2026-04-25 17:49 53.47621 -1.90440 3513 ft 185 kts 320°
2026-04-25 17:49 53.48617 -1.91806 3501 ft 185 kts 315°
2026-04-25 17:49 53.49169 -1.93696 3499 ft 184 kts 275°
2026-04-25 17:49 53.49037 -1.95890 3512 ft 193 kts 261°
2026-04-25 17:50 53.48797 -1.98110 3512 ft 192 kts 260°
2026-04-25 17:50 53.48463 -2.00261 3479 ft 191 kts 242°
2026-04-25 17:50 53.47716 -2.02025 3488 ft 181 kts 233°
2026-04-25 17:50 53.46969 -2.03640 3483 ft 173 kts 232°
2026-04-25 17:51 53.46215 -2.05218 3346 ft 174 kts 232°
2026-04-25 17:51 53.45461 -2.06773 3121 ft 174 kts 231°
2026-04-25 17:51 53.44689 -2.08355 2892 ft 170 kts 231°
2026-04-25 17:51 53.43948 -2.09875 2671 ft 167 kts 231°
2026-04-25 17:52 53.43213 -2.11385 2461 ft 167 kts 231°
2026-04-25 17:52 53.42976 -2.11871 2391 ft 166 kts 231°
2026-04-25 17:52 53.41764 -2.14360 2015 ft 164 kts 231°
2026-04-25 17:52 53.41047 -2.15833 1799 ft 164 kts 232°
2026-04-25 17:53 53.40338 -2.17292 1568 ft 155 kts 232°
2026-04-25 17:53 53.39676 -2.18653 1373 ft 149 kts 232°
2026-04-25 17:53 53.38989 -2.19968 1121 ft 155 kts 229°
2026-04-25 17:53 53.38283 -2.21368 975 ft 153 kts 234°
2026-04-25 17:54 53.37632 -2.22735 736 ft 151 kts 232°
2026-04-25 17:54 53.36983 -2.24069 572 ft 152 kts 233°
2026-04-25 17:54 53.36362 -2.25459 382 ft 144 kts 232°
2026-04-25 17:54 53.35775 -2.26667 268 ft 119 kts 231°
2026-04-25 17:55 53.35414 -2.27501 242 ft 68 kts 225°
2026-04-25 17:55 53.35260 -2.27865 239 ft 23 kts 264°
2026-04-25 17:55 53.35240 -2.28050 231 ft 15 kts 259°
2026-04-25 17:55 53.35232 -2.28128 230 ft 3 kts 260°
2026-04-25 17:56 53.35232 -2.28130 230 ft 0 kts 260°
2026-04-25 17:56 53.35232 -2.28131 230 ft 1 kts 260°
2026-04-25 17:57 53.35236 -2.28176 230 ft 5 kts 294°
2026-04-25 17:57 53.35261 -2.28214 231 ft 5 kts 341°
2026-04-25 17:57 53.35293 -2.28198 232 ft 5 kts 28°
2026-04-25 17:57 53.35303 -2.28189 234 ft 5 kts 28°
2026-04-25 17:58 53.35347 -2.28174 234 ft 5 kts